Погода в Яшкинском

Россия / Кемеровская область (Кузбасс)     55°52′24″N   85°24′10″E
темп.,
°C
ветер,
м/с
пор.,
м/с
влажн.,
%
обл.,
%
осадки,
мм/ч
давл.,
гПа
погр.,
м
9 мая, вс
вс901:00+7ссв3567100 0.0 1017324
04:00+4ссз377020 0.0 1018353
07:00+3с36735 0.0 1019316
10:00+7с455271 0.0 10191363
13:00+10ссв454298 0.0 10191897
16:00+10ссв563898 0.0 10202128
19:00+10св564154 0.0 10201947
22:00+5ссв37675 0.0 1023142
10 мая, пн
пн1001:00+3св25805 0.0 1023113
04:00+2св26945 0.0 1024131
07:00+4св39845 0.0 1024288
10:00+9всв465639 0.0 10241283
13:00+13св55412 0.0 10221635
16:00+15св55374 0.0 10211952
19:00+13всв56431 0.0 10211621
22:00+8св412641 0.0 1021332
11 мая, вт
вт1101:00+6св38765 0.0 1020183
04:00+5св310867 0.0 1019223
07:00+7св512801 0.0 1019370
10:00+12св610555 0.0 10181158
13:00+15св784286 0.0 10172290
16:00+13ссв795366 0.3 10181298
19:00+13ссв6849100 0.3 10191427
22:00+10ссв6115211 0.0 1020545
12 мая, ср
ср1201:00+5ссв410715 0.0 1020332
04:00+2ссз37865 0.0 1020177
07:00+4с47765 0.0 1021256
10:00+10с45545 0.0 1020899
13:00+14ссв334191 0.0 10192066
16:00+14св333799 0.0 10182070
19:00+13в444622 0.0 10191023
22:00+8в226932 0.0 102011
13 мая, чт
чт1301:00+6вюв22847 0.0 102012
04:00+5в11884 0.0 102010
07:00+7вюв11785 0.0 102066
10:00+14ююв22503 0.0 10191191
13:00+16ююз113578 0.0 10182213
16:00+17зюз223130 0.0 10162390
19:00+17зюз343469 0.0 10142117
22:00+11юз2346100 0.0 101437